VK2XSE Weather Reports


time (UTC)temp
C
wind
direction
speed
KPH
gust
KPH
rain 1hr
cm
rain 24hr
cm
rain mn
cm
humidity
%
barometer
mb
20260510011017 16 45 1.6 4.8 0.00 0.00 0.00 66 1029.6
20260510010017 16 135 1.6 4.8 0.00 0.00 0.00 68 1029.7
20260510005017 16 0.0 3.2 0.00 0.00 0.00 70 1029.7
20260510004017 15 158 1.6 3.2 0.00 0.00 0.00 72 1029.8
20260510003017 15 158 1.6 4.8 0.00 0.00 0.00 73 1029.8
20260510002017 15 0.0 3.2 0.00 0.00 0.00 77 1029.8
20260510001017 13 135 1.6 3.2 0.00 0.00 0.00 83 1029.8
20260510000017 12 0.0 0.0 0.00 0.00 0.00 92 1029.7
20260509235016 12 0.0 3.2 0.00 0.00 0.00 95 1029.7
20260509234016 11 0.0 1.6 0.00 0.00 0.00 95 1029.7
20260509233017 11 0.0 3.2 0.00 0.00 0.00 95 1029.7
20260509232016 10 0.0 3.2 0.00 0.00 0.00 95 1029.7
20260509231016 9 0.0 3.2 0.00 0.00 0.00 95 1029.6
20260509230018 8 0.0 3.2 0.00 0.00 0.00 95 1029.5
20260509225018 7 0.0 1.6 0.00 0.00 0.00 94 1029.4
20260509224018 6 0.0 0.0 0.00 0.00 0.00 93 1029.3
20260509223017 6 0.0 3.2 0.00 0.00 0.00 93 1029.2
20260509222018 5 0.0 0.0 0.00 0.00 0.00 93 1029.0
20260509221018 5 0.0 0.0 0.00 0.00 0.00 93 1029.0
20260509220018 5 0.0 0.0 0.00 0.00 0.00 92 1028.9
20260509215018 5 0.0 0.0 0.00 0.00 0.00 92 1028.7
20260509214018 5 0.0 0.0 0.00 0.00 0.00 91 1028.6
20260509213018 5 0.0 0.0 0.00 0.00 0.00 91 1028.5
20260509212018 5 0.0 0.0 0.00 0.00 0.00 91 1028.4
20260509211018 5 0.0 0.0 0.00 0.00 0.00 91 1028.4
20260509210018 5 0.0 3.2 0.00 0.00 0.00 90 1028.2
20260509205018 5 0.0 3.2 0.00 0.00 0.00 90 1028.1
20260509204018 5 0.0 3.2 0.00 0.00 0.00 90 1028.0
20260509203018 5 0.0 0.0 0.00 0.00 0.00 90 1027.9
20260509202018 5 0.0 0.0 0.00 0.00 0.00 90 1027.9
20260509201018 5 0.0 0.0 0.00 0.00 0.00 89 1027.8
20260509200018 5 0.0 0.0 0.00 0.00 0.00 89 1027.8
20260509195019 5 0.0 0.0 0.00 0.00 0.00 90 1027.6
20260509194018 5 0.0 0.0 0.00 0.00 0.00 90 1027.5
20260509193018 6 0.0 0.0 0.00 0.00 0.00 89 1027.5
20260509192018 6 0.0 0.0 0.00 0.00 0.00 90 1027.4
20260509191018 6 0.0 0.0 0.00 0.00 0.00 90 1027.4
20260509190018 6 0.0 0.0 0.00 0.00 0.00 90 1027.2
20260509185018 6 0.0 0.0 0.00 0.00 0.00 90 1027.2
20260509184018 6 0.0 3.2 0.00 0.00 0.00 89 1027.1
20260509183018 6 0.0 3.2 0.00 0.00 0.00 89 1027.0
20260509182018 6 0.0 0.0 0.00 0.00 0.00 89 1026.9
20260509181018 6 0.0 0.0 0.00 0.00 0.00 88 1026.9
20260509180018 6 0.0 0.0 0.00 0.00 0.00 88 1026.8
20260509175018 6 0.0 0.0 0.00 0.00 0.00 87 1026.8
20260509174018 6 0.0 0.0 0.00 0.00 0.00 87 1026.8
20260509173018 6 0.0 0.0 0.00 0.00 0.00 87 1026.8
20260509172018 6 0.0 0.0 0.00 0.00 0.00 87 1026.8
20260509171018 7 0.0 0.0 0.00 0.00 0.00 87 1026.9
20260509170017 7 0.0 0.0 0.00 0.00 0.00 87 1026.9
20260509165018 7 0.0 0.0 0.00 0.00 0.00 88 1026.9
20260509164017 7 0.0 0.0 0.00 0.00 0.00 88 1026.9
20260509163017 7 0.0 0.0 0.00 0.00 0.00 88 1026.9
20260509162017 7 0.0 0.0 0.00 0.00 0.00 88 1026.9
20260509161017 7 0.0 0.0 0.00 0.00 0.00 88 1026.9
20260509160017 7 0.0 0.0 0.00 0.00 0.00 87 1026.9
20260509155032 7 0.0 3.2 0.00 0.00 0.00 87 1026.9
20260509154017 8 0.0 0.0 0.00 0.00 0.00 87 1026.8
20260509153017 8 0.0 3.2 0.00 0.00 0.00 86 1026.8
20260509152017 8 0.0 3.2 0.00 0.00 0.00 85 1026.7
20260509151017 8 0.0 1.6 0.00 0.00 0.00 83 1026.7
20260509150017 8 0.0 0.0 0.00 0.00 0.00 83 1026.8
20260509145017 8 0.0 0.0 0.00 0.00 0.00 82 1026.9
20260509144017 9 0.0 0.0 0.00 0.00 0.00 82 1026.8
20260509143017 9 0.0 3.2 0.00 0.00 0.00 83 1026.8
20260509142017 10 203 1.6 1.6 0.00 0.00 0.00 84 1026.9
20260509141017 10 203 1.6 1.6 0.00 0.00 0.00 83 1026.9
20260509140017 10 203 1.6 3.2 0.00 0.00 0.00 83 1026.9
20260509135017 10 0.0 1.6 0.00 0.00 0.00 82 1027.0
20260509134017 10 0.0 0.0 0.00 0.00 0.00 80 1027.0
20260509133017 10 0.0 0.0 0.00 0.00 0.00 80 1027.1
20260509132017 10 0.0 0.0 0.00 0.00 0.00 80 1027.1
20260509131017 10 0.0 3.2 0.00 0.00 0.00 80 1027.1
20260509130017 10 203 4.8 4.8 0.00 0.00 0.00 80 1027.1
20260509125017 11 203 3.2 4.8 0.00 0.00 0.00 79 1027.0
20260509124017 11 203 3.2 4.8 0.00 0.00 0.00 78 1027.0
20260509123017 11 203 4.8 4.8 0.00 0.00 0.00 78 1027.0
20260509122017 11 203 3.2 3.2 0.00 0.00 0.00 78 1027.0
20260509121017 11 203 4.8 4.8 0.00 0.00 0.00 78 1026.9
20260509120017 11 203 3.2 4.8 0.00 0.00 0.00 78 1027.0
20260509115017 11 203 3.2 3.2 0.00 0.00 0.00 78 1027.0
20260509114017 11 203 1.6 3.2 0.00 0.00 0.00 77 1027.0
20260509113016 11 203 1.6 1.6 0.00 0.00 0.00 77 1026.9
20260509112016 11 203 3.2 3.2 0.00 0.00 0.00 77 1026.9
20260509111016 11 0.0 3.2 0.00 0.00 0.00 78 1027.0
20260509110016 11 203 1.6 3.2 0.00 0.00 0.00 79 1026.9
20260509105016 11 0.0 0.0 0.00 0.00 0.00 79 1026.7
20260509104018 11 0.0 3.2 0.00 0.00 0.00 78 1026.6
20260509103018 11 0.0 0.0 0.00 0.00 0.00 77 1026.6
20260509102018 11 0.0 3.2 0.00 0.00 0.00 77 1026.7
20260509101018 12 0.0 0.0 0.00 0.00 0.00 76 1026.6
20260509100018 12 0.0 0.0 0.00 0.00 0.00 75 1026.6
20260509095018 12 0.0 0.0 0.00 0.00 0.00 75 1026.6
20260509094018 12 0.0 0.0 0.00 0.00 0.00 74 1026.7
20260509093018 12 0.0 0.0 0.00 0.00 0.00 73 1026.6
20260509092018 13 0.0 0.0 0.00 0.00 0.00 73 1026.6
20260509091018 13 0.0 0.0 0.00 0.00 0.00 71 1026.6
20260509090018 13 0.0 0.0 0.00 0.00 0.00 71 1026.5
20260509085018 13 0.0 0.0 0.00 0.00 0.00 69 1026.4
20260509084018 14 0.0 0.0 0.00 0.00 0.00 69 1026.3
20260509083018 14 0.0 0.0 0.00 0.00 0.00 68 1026.2
20260509082018 15 0.0 0.0 0.00 0.00 0.00 67 1026.1
20260509081018 15 0.0 0.0 0.00 0.00 0.00 66 1025.9
20260509080018 15 0.0 0.0 0.00 0.00 0.00 64 1025.8
20260509075018 15 0.0 0.0 0.00 0.00 0.00 63 1025.7
20260509074018 16 0.0 0.0 0.00 0.00 0.00 62 1025.7
20260509073018 16 0.0 0.0 0.00 0.00 0.00 61 1025.5
20260509072018 16 0.0 0.0 0.00 0.00 0.00 60 1025.5
20260509071018 16 0.0 3.2 0.00 0.00 0.00 59 1025.4
20260509070018 17 0.0 3.2 0.00 0.00 0.00 59 1025.3
20260509065018 17 0.0 3.2 0.00 0.00 0.00 58 1025.2
20260509064018 17 203 1.6 3.2 0.00 0.00 0.00 57 1025.2
20260509063018 17 225 1.6 3.2 0.00 0.00 0.00 56 1025.1
20260509062018 17 270 1.6 6.4 0.00 0.00 0.00 56 1025.1
20260509061018 17 248 1.6 9.7 0.00 0.00 0.00 55 1025.1
20260509060018 17 203 3.2 8.0 0.00 0.00 0.00 56 1025.1
20260509055018 18 270 3.2 11.3 0.00 0.00 0.00 55 1025.1
20260509054018 18 225 1.6 9.7 0.00 0.00 0.00 56 1025.1
20260509053018 18 203 1.6 4.8 0.00 0.00 0.00 55 1025.1
20260509052017 18 203 1.6 12.9 0.00 0.00 0.00 56 1025.1
20260509051018 18 203 1.6 4.8 0.00 0.00 0.00 56 1025.1
20260509050017 18 248 1.6 4.8 0.00 0.00 0.00 57 1025.1
20260509045017 18 225 1.6 4.8 0.00 0.00 0.00 57 1025.0
20260509044017 18 270 3.2 8.0 0.00 0.00 0.00 56 1025.1
20260509043017 18 248 3.2 9.7 0.00 0.00 0.00 57 1025.1
20260509042017 18 225 1.6 6.4 0.00 0.00 0.00 56 1025.1
20260509041748 18 270 3.2 11.3 0.00 0.00 0.00 58 1025.1
20260509034517 17 270 3.2 12.9 0.00 0.00 0.00 57 1025.3
20260509033517 17 203 1.6 6.4 0.00 0.00 0.00 58 1025.3
20260509032517 17 248 3.2 4.8 0.00 0.00 0.00 58 1025.5
20260509031517 17 180 3.2 9.7 0.00 0.00 0.00 60 1025.6
20260509030517 17 248 3.2 9.7 0.00 0.00 0.00 61 1025.6
20260509025517 17 248 3.2 11.3 0.00 0.00 0.00 60 1025.7
20260509024517 17 203 1.6 4.8 0.00 0.00 0.00 62 1025.9
20260509023517 17 203 3.2 8.0 0.00 0.00 0.00 61 1026.0
20260509022517 17 248 3.2 12.9 0.00 0.00 0.00 62 1026.2
20260509021517 16 270 3.2 6.4 0.00 0.00 0.00 62 1026.4
20260509020517 16 203 3.2 9.7 0.00 0.00 0.00 65 1026.6
20260509015517 16 180 4.8 9.7 0.00 0.00 0.00 64 1026.7
20260509014517 16 225 3.2 9.7 0.00 0.00 0.00 65 1026.9
20260509013517 16 225 1.6 4.8 0.00 0.00 0.00 65 1027.0
20260509012517 15 248 3.2 12.9 0.00 0.00 0.00 66 1027.0